Wind_Speed
27 27 26 24 24 24 25 25 25 25 26 27 29 30 31 32 33 34 35 36 37 38 37 36 36 35 34 34 35 35 33 32 31 32 32 32 32 32 33 33 33 32 32
29 29 28 27 26 26 26 26 26 27 28 29 30 31 32 33 33 32 32 33 33 34 35 36 35 34 34 34 34 35 35 35 34 35 35 36 36 36 36 37 37 37 37
30 31 30 29 29 28 28 28 29 29 30 31 32 33 34 34 34 33 32 31 31 32 33 33 33 33 33 34 35 35 36 37 37 38 39 40 40 40 40 41 41 41 41
31 32 31 31 31 31 31 31 31 32 32 33 34 35 35 35 35 34 33 32 31 32 32 33 34 35 37 38 39 39 40 41 41 42 43 43 43 43 44 44 45 46 46
32 33 33 33 33 34 34 34 34 33 33 34 36 36 36 36 36 35 35 34 35 36 37 38 39 40 41 43 44 45 46 46 46 45 45 46 46 46 47 48 49 50 51
33 33 34 34 34 35 35 35 35 34 34 36 37 37 37 37 37 36 36 37 38 40 42 44 45 46 47 47 48 49 49 49 48 48 48 48 48 49 50 51 53 54 56
33 33 33 34 34 34 34 34 35 35 35 36 37 38 37 38 38 38 38 38 40 42 44 47 48 50 50 50 49 50 50 50 50 50 51 51 52 52 54 55 57 59 60
33 33 33 32 33 33 33 34 35 35 36 36 37 38 38 39 39 40 40 41 42 44 46 48 50 51 51 50 50 50 50 51 52 53 54 54 55 56 58 60 61 62 63
36 35 33 32 32 33 33 34 34 35 36 36 36 37 38 39 40 40 42 43 44 46 48 49 50 50 49 50 50 51 52 53 54 55 56 58 59 61 63 64 64 64 64
39 37 35 34 34 33 33 34 34 35 35 36 37 37 38 39 41 42 43 44 46 47 48 49 49 49 49 50 52 53 55 56 57 59 60 62 64 65 66 66 67 67 68
42 40 38 36 36 36 35 35 35 35 36 36 37 38 39 40 41 43 44 45 46 47 48 49 50 51 52 53 54 55 57 58 60 62 64 66 67 68 69 69 70 71 72
46 44 41 40 39 38 37 36 36 36 37 38 39 40 40 41 42 43 44 45 46 48 50 52 53 54 54 55 56 58 59 61 63 64 66 67 69 70 71 72 73 75 76
48 46 44 42 41 40 39 38 37 38 38 39 40 41 42 43 44 45 46 47 48 49 50 52 54 55 56 57 59 61 62 63 65 66 68 69 70 71 73 74 76 78 80
48 47 46 44 42 41 40 40 39 40 40 41 42 43 44 45 46 47 49 50 51 52 52 53 54 56 58 60 62 63 64 66 67 68 70 71 73 75 77 79 82 84 87
49 48 46 44 43 41 41 41 41 41 42 43 44 44 45 47 48 50 52 54 55 55 54 55 57 58 60 61 62 64 65 67 68 70 73 76 79 82 84 86 89 92 94
49 47 45 44 43 42 42 42 42 42 43 44 44 45 47 49 51 53 55 57 58 58 59 60 61 61 62 63 64 65 67 69 72 75 79 83 86 89 92 94 96 98 98
49 46 44 43 42 41 41 41 42 43 45 45 45 46 49 52 54 56 58 58 59 61 62 63 64 65 65 66 67 69 72 75 79 84 88 91 94 96 97 97 96 93 89
47 45 42 41 40 40 40 41 43 44 45 45 46 48 52 55 57 58 59 60 61 63 64 64 64 65 67 69 72 74 78 83 87 92 95 96 97 95 92 88 82 75 69
45 42 41 39 39 39 40 42 43 44 44 45 48 51 55 58 59 59 60 62 63 64 65 65 66 68 70 74 77 80 85 90 94 95 95 92 87 82 77 72 66 61 58
41 40 39 38 37 38 40 41 42 42 44 47 51 55 58 59 60 61 62 63 64 65 66 67 68 71 74 78 82 85 88 91 91 89 85 78 73 69 66 63 59 56 55
38 37 36 36 37 38 40 40 41 43 47 52 55 57 59 60 61 62 63 64 65 66 68 69 72 75 78 82 86 88 88 84 79 75 70 66 65 63 61 59 57 55 54
35 34 35 36 37 37 38 40 43 47 51 54 56 58 59 61 62 63 64 65 67 69 71 73 75 78 82 85 86 85 81 74 66 63 62 59 61 59 58 56 55 55 53
32 33 35 36 38 39 43 45 47 49 52 54 56 58 60 61 62 63 65 66 69 72 74 76 79 82 84 84 81 76 70 64 59 59 59 56 57 55 53 52 53 53 52
32 35 36 38 40 44 46 46 47 49 52 54 57 58 60 61 63 64 65 67 70 73 76 79 82 83 82 78 72 66 61 57 55 57 59 56 53 52 49 48 50 51 50
35 37 40 40 40 41 43 44 47 49 52 55 57 59 61 63 64 66 68 70 73 76 79 82 82 79 74 68 62 58 55 55 53 53 57 55 51 49 44 44 47 49 49
33 33 33 34 37 39 42 45 48 51 54 56 59 61 63 64 66 69 71 73 75 77 79 78 75 69 62 57 55 54 55 55 54 52 52 51 48 46 40 37 40 44 45
Wind_Direction
275 276 278 281 283 283 282 282 282 283 284 285 286 286 287 286 284 283 281 278 276 276 277 278 278 277 275 274 273 273 274 276 281 286 289 290 289 286 283 280 279 279 279
273 275 277 279 281 282 283 284 284 285 286 287 288 288 288 289 287 286 284 283 281 280 279 278 278 277 276 275 274 273 273 274 277 282 285 286 286 283 281 278 276 276 277
270 272 275 277 280 282 283 283 284 286 288 290 290 290 289 289 288 285 284 284 283 281 280 279 278 277 276 276 275 274 273 274 276 279 281 283 283 282 279 276 274 274 275
268 269 272 275 278 280 281 282 284 286 288 290 291 291 290 289 289 285 282 281 281 280 279 278 279 279 279 279 278 276 275 275 276 277 278 280 281 280 278 275 273 272 273
264 267 270 273 276 278 280 281 284 286 288 291 292 292 291 289 289 285 280 278 279 280 280 280 281 282 282 282 281 279 278 277 276 276 277 278 279 279 278 275 273 272 272
264 267 270 273 275 278 280 281 282 284 288 291 293 293 293 290 289 286 282 279 279 280 281 282 283 284 284 283 281 280 280 279 278 277 277 277 277 277 276 275 274 273 272
264 267 270 273 275 277 279 280 281 284 288 290 292 293 293 291 289 288 286 283 282 282 283 283 284 284 284 282 280 279 279 279 278 277 277 277 277 276 276 275 275 275 274
262 265 269 273 276 277 278 279 281 284 287 290 292 293 293 292 290 289 288 287 286 285 285 285 285 284 283 281 279 278 278 278 278 278 278 278 278 278 278 277 277 277 276
260 264 268 272 275 276 277 279 281 284 288 290 291 293 294 293 292 290 290 289 288 288 287 287 286 284 283 281 280 280 279 279 279 279 278 278 279 279 279 279 279 278 276
260 264 267 269 272 274 276 279 281 284 287 290 292 293 294 294 293 292 291 291 291 291 290 289 287 285 284 283 283 283 282 282 282 282 282 282 282 282 281 281 280 279 278
261 263 266 269 271 273 275 277 280 283 286 288 291 292 294 294 294 294 295 295 296 295 294 292 290 288 287 286 286 286 286 286 287 287 287 287 286 286 285 284 283 282 281
260 262 266 268 270 272 274 276 279 282 285 287 289 291 292 293 294 295 296 297 297 297 296 295 293 292 290 290 289 289 289 289 289 289 288 288 287 286 286 285 284 283 282
259 261 264 267 270 272 273 275 278 282 284 286 288 290 291 293 294 295 296 296 296 296 295 294 293 293 292 292 292 291 291 291 290 289 288 287 286 285 284 283 282 281 280
257 259 263 266 269 270 272 275 278 282 284 286 287 289 291 292 294 295 296 297 296 296 296 295 295 295 295 294 294 294 293 292 291 290 289 288 287 286 285 284 283 281 280
254 257 260 264 266 268 270 275 278 281 284 286 287 289 291 292 294 295 297 298 298 297 296 296 296 296 296 295 294 293 292 292 291 291 290 289 288 288 287 286 284 283 282
252 255 258 262 264 266 270 274 278 281 284 286 287 288 290 293 294 296 297 298 298 298 298 298 297 297 296 295 294 294 293 293 293 293 292 291 291 290 289 288 287 285 284
250 253 257 260 262 266 270 274 278 281 284 285 286 288 291 293 295 296 297 298 298 299 299 299 299 298 297 297 296 296 296 296 296 296 296 295 295 294 292 291 290 288 286
249 252 255 259 262 266 270 274 278 282 284 285 287 289 291 293 294 295 297 298 299 300 300 299 299 298 298 298 298 298 298 299 299 299 299 298 297 296 294 292 290 288 285
246 250 254 258 262 265 270 275 279 282 284 286 288 290 291 293 294 295 297 298 299 300 300 299 299 299 299 299 300 301 302 302 302 302 301 300 298 296 294 291 289 287 284
244 249 254 258 261 266 271 276 280 283 285 288 289 289 291 293 295 297 298 299 300 300 300 300 300 300 301 302 303 304 304 304 304 302 301 300 298 296 294 292 290 286 282
243 249 253 257 262 267 272 276 280 284 286 287 288 289 292 294 296 298 299 299 300 300 300 300 301 302 303 304 305 306 306 305 304 301 300 299 298 297 295 293 290 286 282
243 248 252 258 263 268 274 279 281 283 285 286 289 291 293 296 298 299 300 300 300 301 301 302 304 305 305 306 307 308 307 306 303 300 299 299 298 297 295 292 289 286 283
243 248 253 259 264 269 273 276 281 284 286 289 291 293 295 297 298 299 300 301 302 302 303 305 306 306 307 308 309 308 307 306 304 301 299 300 298 297 295 291 287 284 282
245 249 254 259 262 266 272 278 284 287 289 291 293 295 296 297 298 299 300 301 303 304 305 306 308 310 310 310 309 308 306 305 305 303 302 302 300 297 295 291 287 284 281
245 250 254 259 265 273 281 285 288 290 292 294 296 297 297 298 299 300 301 303 305 306 307 309 310 310 310 309 308 308 307 307 307 306 304 305 303 299 295 291 287 284 281
253 259 265 274 281 286 288 291 293 294 296 297 297 298 299 299 300 301 302 304 305 307 308 309 310 311 310 310 310 310 311 311 311 310 307 307 305 301 295 288 284 282 282
Height
5820 5820 5821 5821 5821 5820 5819 5818 5817 5816 5815 5814 5813 5812 5809 5807 5805 5803 5801 5800 5799 5798 5797 5796 5795 5794 5793 5791 5791 5790 5789 5788 5787 5786 5785 5784 5783 5782 5782 5782 5781 5781 5781
5815 5815 5815 5815 5815 5814 5813 5812 5811 5810 5809 5808 5807 5805 5803 5800 5798 5796 5794 5792 5791 5790 5789 5788 5788 5787 5786 5784 5783 5782 5781 5780 5779 5778 5778 5777 5775 5774 5774 5773 5773 5773 5773
5809 5809 5809 5809 5809 5808 5807 5806 5805 5804 5803 5801 5800 5798 5795 5793 5791 5789 5787 5785 5784 5783 5782 5781 5780 5779 5778 5777 5776 5774 5773 5772 5771 5769 5769 5768 5767 5765 5764 5764 5763 5763 5763
5802 5802 5803 5803 5802 5801 5800 5800 5798 5797 5796 5794 5792 5790 5788 5786 5783 5781 5780 5778 5777 5776 5774 5773 5772 5771 5770 5768 5767 5766 5764 5763 5761 5760 5759 5757 5756 5755 5754 5753 5752 5752 5751
5795 5795 5796 5795 5795 5794 5793 5792 5791 5790 5789 5787 5785 5782 5780 5778 5775 5773 5772 5771 5769 5768 5766 5765 5763 5762 5760 5759 5757 5756 5754 5753 5751 5750 5748 5747 5745 5743 5742 5741 5740 5740 5739
5787 5788 5788 5788 5787 5787 5786 5785 5784 5783 5781 5779 5777 5774 5772 5770 5768 5766 5764 5763 5761 5759 5757 5755 5753 5752 5750 5748 5746 5744 5743 5741 5739 5738 5736 5735 5733 5731 5730 5728 5727 5726 5725
5780 5780 5780 5780 5780 5779 5778 5777 5776 5775 5773 5771 5769 5767 5764 5762 5759 5757 5755 5753 5751 5749 5747 5744 5742 5740 5738 5736 5734 5732 5730 5728 5726 5724 5723 5721 5719 5718 5716 5714 5712 5710 5709
5772 5773 5773 5773 5772 5771 5770 5769 5768 5767 5765 5763 5761 5759 5756 5754 5751 5749 5746 5744 5741 5739 5736 5733 5731 5729 5726 5724 5721 5719 5717 5715 5713 5711 5709 5707 5705 5703 5701 5699 5696 5694 5693
5764 5765 5765 5765 5765 5764 5763 5762 5760 5759 5757 5755 5753 5751 5748 5746 5743 5741 5737 5734 5731 5727 5724 5722 5719 5717 5714 5711 5708 5706 5704 5701 5698 5696 5694 5691 5689 5686 5684 5682 5679 5677 5675
5755 5756 5757 5757 5757 5756 5755 5754 5753 5751 5750 5747 5745 5742 5740 5737 5734 5731 5728 5724 5720 5717 5713 5710 5707 5704 5702 5698 5695 5692 5689 5686 5683 5680 5677 5674 5671 5668 5666 5663 5660 5658 5656
5747 5747 5748 5748 5748 5748 5747 5746 5745 5744 5742 5740 5737 5734 5731 5728 5725 5721 5718 5714 5710 5706 5701 5697 5694 5691 5688 5684 5681 5677 5674 5670 5667 5663 5659 5655 5651 5648 5644 5641 5638 5636 5633
5737 5738 5739 5739 5739 5739 5739 5738 5737 5736 5734 5731 5728 5725 5722 5719 5716 5712 5709 5705 5701 5695 5690 5684 5680 5677 5674 5670 5666 5662 5659 5654 5650 5646 5641 5637 5632 5628 5624 5620 5616 5613 5609
5727 5728 5729 5730 5730 5730 5730 5729 5728 5727 5725 5722 5719 5716 5713 5709 5705 5702 5698 5694 5691 5686 5680 5674 5668 5664 5659 5655 5650 5646 5643 5638 5633 5628 5623 5618 5613 5609 5605 5600 5596 5592 5588
5717 5718 5719 5720 5720 5720 5720 5720 5719 5717 5715 5713 5710 5706 5703 5699 5695 5691 5686 5682 5678 5674 5669 5662 5656 5650 5645 5640 5635 5630 5625 5620 5614 5609 5603 5597 5592 5587 5582 5577 5572 5567 5562
5706 5708 5710 5711 5711 5711 5711 5710 5709 5708 5706 5703 5699 5696 5692 5687 5683 5678 5673 5669 5664 5660 5656 5650 5643 5637 5631 5625 5619 5614 5608 5602 5595 5589 5582 5576 5569 5562 5556 5550 5544 5538 5532
5696 5698 5700 5701 5701 5701 5701 5701 5699 5698 5695 5692 5689 5685 5681 5676 5671 5666 5661 5655 5650 5645 5641 5635 5628 5621 5615 5609 5602 5596 5589 5582 5575 5567 5559 5551 5543 5535 5527 5519 5512 5504 5497
5686 5689 5691 5692 5692 5692 5692 5691 5689 5687 5685 5681 5678 5674 5669 5664 5659 5653 5647 5642 5636 5631 5625 5620 5611 5604 5597 5590 5583 5576 5569 5561 5552 5542 5532 5523 5514 5504 5494 5485 5477 5470 5463
5676 5679 5681 5683 5683 5683 5683 5681 5680 5677 5674 5670 5667 5662 5657 5652 5646 5640 5635 5629 5622 5616 5610 5604 5596 5588 5579 5571 5564 5556 5547 5537 5526 5514 5503 5492 5482 5471 5462 5453 5446 5440 5435
5667 5670 5673 5674 5674 5674 5674 5672 5670 5666 5663 5659 5655 5650 5645 5639 5633 5628 5621 5615 5608 5600 5593 5587 5580 5571 5562 5552 5544 5535 5524 5511 5497 5484 5473 5462 5452 5442 5433 5426 5422 5418 5414
5659 5662 5664 5665 5665 5665 5664 5662 5659 5656 5652 5648 5643 5638 5632 5626 5620 5614 5607 5600 5592 5585 5577 5570 5562 5554 5544 5532 5522 5512 5502 5487 5472 5456 5445 5436 5427 5419 5411 5406 5402 5398 5395
5650 5653 5654 5655 5656 5655 5654 5651 5648 5645 5641 5636 5631 5625 5619 5613 5606 5599 5592 5584 5577 5569 5561 5553 5545 5535 5524 5512 5501 5489 5478 5465 5451 5433 5425 5417 5407 5401 5392 5386 5381 5378 5375
5642 5645 5646 5647 5646 5645 5644 5641 5637 5633 5629 5624 5618 5612 5605 5598 5591 5584 5576 5568 5560 5551 5543 5535 5525 5514 5503 5491 5479 5465 5453 5443 5434 5419 5409 5402 5390 5384 5376 5369 5363 5358 5355
5635 5637 5638 5638 5637 5636 5634 5630 5626 5621 5616 5611 5605 5598 5591 5584 5576 5569 5561 5553 5543 5532 5523 5514 5505 5493 5482 5470 5459 5446 5433 5423 5414 5400 5392 5389 5377 5369 5361 5353 5345 5340 5338
5628 5629 5629 5629 5628 5626 5623 5619 5615 5609 5604 5598 5591 5585 5578 5570 5562 5554 5547 5538 5527 5515 5505 5494 5484 5472 5459 5447 5437 5428 5417 5409 5400 5385 5372 5369 5362 5354 5347 5338 5328 5323 5320
5621 5622 5622 5620 5618 5616 5612 5608 5603 5596 5590 5584 5577 5570 5563 5555 5547 5539 5531 5522 5511 5498 5485 5473 5462 5451 5439 5429 5419 5411 5402 5393 5385 5374 5357 5351 5345 5337 5333 5325 5314 5307 5304
5615 5614 5613 5611 5608 5605 5601 5596 5590 5584 5577 5570 5563 5555 5548 5539 5531 5521 5513 5503 5493 5482 5469 5455 5443 5432 5422 5412 5403 5395 5386 5377 5367 5359 5346 5337 5329 5320 5318 5314 5304 5295 5290